Вернуться в каталог

FENGYUN 1C DEB

АктивенSSO
NORAD 30283·DEBRIS·🇨🇳 China

Запущен May 10, 1999 с Taiyuan Satellite Launch Center

Loading…

Ближайшие Пролёты (ближайшие 24 часа)

TLE

СвежийSource: Space-Track

Эпоха: Sep 14, 2026, 10:40 UTC

1 30283U 99025YU  26257.44459609  .00000290  00000-0  18854-3 0  9994
2 30283  98.8844 249.0296 0182961 355.4584 157.9643 14.02096687  5555

Отслеживайте FENGYUN 1C DEB в реальном времени с AllMySat

Download on the App Store